Weather History for Marion, IN

Change the Weather History Date:

Sunday, February 3, 2013

  Actual Average (KMIE) Record (KMIE)
Temperature  
Mean Temperature 16 °F 27 °F  
Max Temperature 62 °F 35 °F 53 °F (2003)
Min Temperature 11 °F 19 °F -11 °F (1985)
Degree Days  
Heating Degree Days 49 38  
Month to date heating degree days 114  
Since 1 July heating degree days 3507  
Cooling Degree Days 0 0  
Month to date cooling degree days 0  
Year to date cooling degree days 0  
Moisture  
Dew Point 11 °F    
Average Humidity 80    
Maximum Humidity 86    
Minimum Humidity 74    
Precipitation  
Precipitation 0.00 in 0.08 in 0.56 in (2008)
Month to date precipitation 0.23  
Year to date precipitation 2.46  
Sea Level Pressure  
Sea Level Pressure 30.00 in    
Wind  
Wind Speed 10 mph (West)    
Max Wind Speed 21 mph    
Max Gust Speed 24 mph    
Visibility 6 miles    
Events Snow    
T = Trace of Precipitation, MM = Missing Value Source: NWS Daily Summary

Daily Weather History Graph

Daily Weather History Graph

Search for Another Location

Airport:

Trip Planner

Search our weather history database for the weather conditions in past years. The results will help you decide how hot, cold, wet, or windy it might be!

Date:

Astronomy

Feb. 03, 2013 Rise Set
Actual Time 7:49 AM EST 6:03 PM EST
Civil Twilight 7:21 AM EST 6:32 PM EST
Nautical Twilight 6:48 AM EST 7:04 PM EST
Astronomical Twilight 6:16 AM EST 7:36 PM EST
Moon 1:16 AM EST (2/3) 11:40 AM EST (2/3)
Length of Visible Light 11h 11m
Length of Day
10h 13m
Waning Gibbous, 49% of the Moon is Illuminated
Feb 3
Waning Gibbous
Feb 10
New
Feb 17
First Quarter
Feb 25
Full
Mar 4
Last Quarter

Hourly Weather History & Observations

Time (EST) Temp. Windchill Dew Point Humidity Pressure Visibility Wind Dir Wind Speed Gust Speed Precip Events Conditions
12:15 AM 18.5 °F 8.4 °F 14.7 °F 85% 30.01 in 4.0 mi WNW 8.1 mph - N/A Snow Light Snow
12:35 AM 18.3 °F 7.3 °F 14.5 °F 85% 30.01 in 5.0 mi WNW 9.2 mph - N/A Snow Light Snow
12:55 AM 18.0 °F 6.9 °F 14.4 °F 86% 30.00 in 7.0 mi WNW 9.2 mph - N/A Snow Light Snow
1:15 AM 17.6 °F 7.3 °F 13.8 °F 85% 29.99 in 7.0 mi WNW 8.1 mph - N/A Snow Light Snow
1:35 AM 17.4 °F 5.4 °F 13.8 °F 86% 29.99 in 7.0 mi West 10.4 mph - N/A Snow Light Snow
1:55 AM 16.7 °F 5.3 °F 13.1 °F 86% 29.98 in 7.0 mi WNW 9.2 mph - N/A Snow Light Snow
2:15 AM 16.2 °F 3.9 °F 12.6 °F 86% 29.98 in 7.0 mi WNW 10.4 mph - N/A Snow Light Snow
2:35 AM 15.4 °F 3.8 °F 11.8 °F 86% 29.98 in 10.0 mi WNW 9.2 mph - N/A Snow Light Snow
2:55 AM 14.9 °F 2.3 °F 11.1 °F 85% 29.98 in 7.0 mi West 10.4 mph - N/A Snow Light Snow
3:15 AM 14.5 °F 2.7 °F 10.8 °F 85% 29.98 in 7.0 mi WNW 9.2 mph - N/A Snow Light Snow
3:35 AM 14.2 °F 2.2 °F 10.2 °F 84% 29.97 in 10.0 mi WNW 9.2 mph - N/A Snow Light Snow
3:55 AM 13.8 °F 1.8 °F 9.5 °F 83% 29.96 in 10.0 mi WNW 9.2 mph - N/A Snow Light Snow
4:15 AM 13.3 °F 0.3 °F 9.0 °F 83% 29.96 in 10.0 mi West 10.4 mph - N/A Snow Light Snow
4:35 AM 12.7 °F 0.4 °F 8.4 °F 83% 29.96 in 7.0 mi West 9.2 mph - N/A Snow Light Snow
4:55 AM 12.6 °F 4.8 °F 8.2 °F 83% 29.95 in 5.0 mi WNW 4.6 mph - N/A Snow Light Snow
5:15 AM 12.2 °F 4.3 °F 7.7 °F 82% 29.94 in 7.0 mi WNW 4.6 mph - N/A Snow Light Snow
5:35 AM 12.2 °F 4.3 °F 7.7 °F 82% 29.94 in 7.0 mi West 4.6 mph - N/A Snow Light Snow
5:55 AM 12.2 °F 4.3 °F 7.7 °F 82% 29.94 in 7.0 mi West 4.6 mph - N/A Snow Light Snow
6:15 AM 12.2 °F 0.7 °F 7.7 °F 82% 29.94 in 7.0 mi West 8.1 mph - N/A Snow Light Snow
6:35 AM 11.8 °F 0.3 °F 7.2 °F 81% 29.94 in 5.0 mi West 8.1 mph - N/A Snow Light Snow
6:55 AM 11.3 °F -1.3 °F 6.4 °F 81% 29.94 in 10.0 mi West 9.2 mph - N/A   Overcast
7:15 AM 11.1 °F -0.6 °F 6.1 °F 80% 29.94 in 10.0 mi West 8.1 mph - N/A   Overcast
7:35 AM 11.1 °F -0.6 °F 5.9 °F 80% 29.95 in 7.0 mi West 8.1 mph - N/A   Overcast
7:55 AM 11.3 °F -2.2 °F 5.5 °F 78% 29.96 in 3.0 mi West 10.4 mph - N/A Snow Light Snow
8:15 AM 11.3 °F -1.3 °F 5.5 °F 78% 29.97 in 3.0 mi West 9.2 mph - N/A Snow Light Snow
8:35 AM 11.8 °F -1.5 °F 5.7 °F 76% 29.97 in 3.0 mi West 10.4 mph - N/A Snow Light Snow
8:55 AM 12.2 °F -1.8 °F 5.4 °F 74% 29.97 in 10.0 mi West 11.5 mph - N/A   Overcast
9:15 AM 12.7 °F 0.4 °F 6.1 °F 75% 29.97 in 3.0 mi West 9.2 mph - N/A Snow Light Snow
9:35 AM 12.9 °F -0.2 °F 6.6 °F 76% 29.98 in 5.0 mi WNW 10.4 mph - N/A Snow Light Snow
9:55 AM 13.3 °F 0.3 °F 7.3 °F 77% 29.97 in 2.0 mi WNW 10.4 mph - N/A Snow Light Snow
10:15 AM 13.8 °F 1.8 °F 8.1 °F 78% 29.98 in 4.0 mi WNW 9.2 mph - N/A Snow Light Snow
10:35 AM 14.2 °F 1.4 °F 8.6 °F 78% 29.97 in 3.0 mi WNW 10.4 mph - N/A Snow Light Snow
10:55 AM 14.4 °F 1.6 °F 8.6 °F 78% 29.98 in 4.0 mi West 10.4 mph - N/A Snow Light Snow
11:15 AM 14.9 °F 2.3 °F 9.3 °F 79% 29.97 in 5.0 mi West 10.4 mph - N/A Snow Light Snow
11:35 AM 15.4 °F 2.3 °F 9.7 °F 78% 29.98 in 3.0 mi West 11.5 mph - N/A Snow Light Snow
11:55 AM 16.0 °F 1.7 °F 10.0 °F 77% 29.98 in 4.0 mi WNW 13.8 mph - N/A Snow Light Snow
12:15 PM 16.5 °F 1.8 °F 10.2 °F 76% 29.97 in 3.0 mi West 15.0 mph - N/A Snow Light Snow
12:35 PM 16.9 °F 2.8 °F 10.8 °F 77% 29.97 in 5.0 mi WNW 13.8 mph - N/A Snow Light Snow
12:55 PM 17.4 °F 4.1 °F 10.9 °F 76% 29.97 in 5.0 mi West 12.7 mph - N/A Snow Light Snow
1:15 PM 17.8 °F 4.0 °F 11.1 °F 75% 29.97 in 7.0 mi WNW 13.8 mph - N/A Snow Light Snow
1:35 PM 18.1 °F 3.9 °F 11.8 °F 76% 29.98 in 7.0 mi West 15.0 mph - N/A   Overcast
1:55 PM 18.7 °F 4.6 °F 12.6 °F 77% 29.98 in 10.0 mi West 15.0 mph - N/A   Overcast
2:15 PM 19.2 °F 4.7 °F 12.9 °F 76% 29.98 in 7.0 mi West 16.1 mph - N/A   Overcast
2:35 PM 19.6 °F 5.2 °F 13.1 °F 76% 29.98 in 7.0 mi WNW 16.1 mph - N/A   Overcast
2:55 PM 19.9 °F 6.7 °F 13.8 °F 77% 29.99 in 5.0 mi West 13.8 mph - N/A Snow Light Snow
3:15 PM 20.3 °F 7.2 °F 14.7 °F 79% 29.99 in 3.0 mi West 13.8 mph - N/A Snow Light Snow
3:35 PM 20.8 °F 7.9 °F 15.4 °F 80% 30.00 in 3.0 mi West 13.8 mph - N/A Snow Light Snow
3:55 PM 21.4 °F 7.5 °F 16.0 °F 80% 30.00 in 3.0 mi West 16.1 mph - N/A Snow Light Snow
4:15 PM 21.2 °F 7.8 °F 15.6 °F 79% 30.01 in 3.0 mi West 15.0 mph 20.7 mph N/A Snow Light Snow
4:35 PM 21.2 °F 5.6 °F 16.2 °F 81% 30.02 in 1.8 mi West 20.7 mph - N/A Snow Light Snow
4:55 PM 21.2 °F 6.8 °F 16.2 °F 81% 30.02 in 0.5 mi WNW 17.3 mph 24.2 mph N/A Snow Light Snow
5:15 PM 21.2 °F 7.8 °F 15.4 °F 78% 30.02 in 3.0 mi WNW 15.0 mph - N/A Snow Light Snow
5:35 PM 21.0 °F 6.6 °F 14.9 °F 77% 30.02 in 5.0 mi WNW 17.3 mph - N/A   Haze
5:55 PM 20.5 °F 8.0 °F 14.4 °F 77% 30.04 in 2.5 mi WNW 12.7 mph - N/A Snow Light Snow
6:15 PM 20.5 °F 6.4 °F 14.4 °F 77% 30.04 in 4.0 mi West 16.1 mph - N/A Snow Light Snow
6:35 PM 19.4 °F 6.0 °F 13.5 °F 78% 30.04 in 4.0 mi West 13.8 mph - N/A Snow Light Snow
6:55 PM 18.1 °F 6.3 °F 12.4 °F 78% 30.05 in 5.0 mi West 10.4 mph - N/A Snow Light Snow
7:15 PM 17.1 °F 5.8 °F 11.3 °F 78% 30.05 in 7.0 mi West 9.2 mph - N/A   Clear
7:35 PM 15.6 °F 3.2 °F 10.2 °F 79% 30.06 in 3.0 mi West 10.4 mph - N/A Snow Light Snow
7:55 PM 14.5 °F 3.6 °F 9.3 °F 80% 30.05 in 4.0 mi West 8.1 mph - N/A Snow Light Snow
8:15 PM 14.4 °F 4.3 °F 9.5 °F 81% 30.05 in 4.0 mi SW 6.9 mph - N/A Snow Light Snow
8:35 PM 14.7 °F 3.8 °F 10.0 °F 82% 30.05 in 4.0 mi WSW 8.1 mph - N/A Snow Light Snow
8:55 PM 15.8 °F 4.2 °F 10.8 °F 80% 30.05 in 3.0 mi WSW 9.2 mph - N/A Snow Light Snow
9:15 PM 15.3 °F 3.5 °F 10.6 °F 82% 30.05 in 4.0 mi SW 9.2 mph - N/A Snow Light Snow
9:35 PM 15.4 °F 4.6 °F 10.4 °F 80% 30.06 in 7.0 mi SW 8.1 mph - N/A Snow Light Snow
9:55 PM 16.2 °F 5.5 °F 10.8 °F 79% 30.06 in 10.0 mi SW 8.1 mph - N/A   Mostly Cloudy
10:15 PM 16.7 °F 8.3 °F 11.5 °F 80% 30.06 in 10.0 mi SW 5.8 mph - N/A   Overcast
10:35 PM 16.7 °F 7.2 °F 11.8 °F 81% 30.06 in 10.0 mi SW 6.9 mph - N/A   Overcast
10:55 PM 16.3 °F 9.2 °F 11.3 °F 81% 30.07 in 10.0 mi SW 4.6 mph - N/A   Overcast
11:15 PM 16.0 °F 5.3 °F 10.9 °F 81% 30.07 in 7.0 mi WSW 8.1 mph - N/A   Overcast
11:35 PM 18.5 °F 7.5 °F 12.6 °F 78% 30.07 in 10.0 mi WSW 9.2 mph - N/A   Overcast
11:55 PM 19.6 °F 10.6 °F 12.9 °F 75% 30.06 in 10.0 mi WSW 6.9 mph - N/A   Overcast